Notices

What's New in latest Release from April 7th, 2021:

- Updated Glossary, including Speed of Maximum Gust, and Total Hourly Precipitation

- Updated national and regional climate services offices contacts and prices information

- Addition of station inventory lists for 1981-2010, 1971-2000, and 1961-1990 Normals.

If you haven't already, please take our survey and provide feedback about our website: https://eccc.sondage-survey.ca/f/LanguageSelection.aspx?s=442ca660-fcf1-47c0-95a9-59707d6fd709

Hourly Data Report for January 06, 2004

TORONTO CITY
ONTARIO

43°40'00.000" N
79°24'00.000" W
112.50 m
6158355
71508
XTO

Download Data

Hourly Data (January 2004)
Hourly Data Report for January 6, 2004
TIME
LST
Temp Definition
°C
Dew Point Definition
°C
Rel Hum Definition
%
Precip. Amount Definition
mm

Wind Dir Definition
10's deg

Wind Spd Definition
km/h
Visibility Definition
km
Stn Press Definition
kPa
Hmdx Definition


Wind Chill Definition


Weather Definition


00:00 -4.5 -8.5 74   LegendMM LegendMM LegendMM 100.28     LegendNANA
01:00 -4.3 -8.0 75   LegendMM LegendMM LegendMM 100.32     LegendNANA
02:00 -4.3 -7.8 77   LegendMM LegendMM LegendMM 100.32     LegendNANA
03:00 -4.2 -7.0 81   LegendMM LegendMM LegendMM 100.35     LegendNANA
04:00 -3.9 -6.7 81   LegendMM LegendMM LegendMM 100.31     LegendNANA
05:00 -3.7 -6.7 80   LegendMM LegendMM LegendMM 100.25     LegendNANA
06:00 -3.7 -7.0 78   LegendMM LegendMM LegendMM 100.21     LegendNANA
07:00 -3.9 -7.4 77   LegendMM LegendMM LegendMM 100.16     LegendNANA
08:00 -4.0 -7.4 77   LegendMM LegendMM LegendMM 100.18     LegendNANA
09:00 -4.7 -10.2 65   LegendMM LegendMM LegendMM 100.21     LegendNANA
10:00 -5.1 -9.8 70   LegendMM LegendMM LegendMM 100.28     LegendNANA
11:00 -6.0 -10.5 70   LegendMM LegendMM LegendMM 100.43     LegendNANA
12:00 -7.0 -13.3 61   LegendMM LegendMM LegendMM 100.49     LegendNANA
13:00 -6.8 -15.5 50   LegendMM LegendMM LegendMM 100.52     LegendNANA
14:00 -8.0 -15.6 54   LegendMM LegendMM LegendMM 100.58     LegendNANA
15:00 -8.7 -18.2 46   LegendMM LegendMM LegendMM 100.62     LegendNANA
16:00 -9.3 -17.1 53   LegendMM LegendMM LegendMM 100.71     LegendNANA
17:00 -9.7 -15.5 63   LegendMM LegendMM LegendMM 100.71     LegendNANA
18:00 -9.9 -14.7 68   LegendMM LegendMM LegendMM 100.71     LegendNANA
19:00 -10.0 -16.2 60   LegendMM LegendMM LegendMM 100.66     LegendNANA
20:00 -10.3 -16.5 60   LegendMM LegendMM LegendMM 100.67     LegendNANA
21:00 -10.8 -16.0 65   LegendMM LegendMM LegendMM 100.63     LegendNANA
22:00 -11.7 -16.6 67   LegendMM LegendMM LegendMM 100.60     LegendNANA
23:00 -11.7 -16.4 68   LegendMM LegendMM LegendMM 100.55     LegendNANA

Notes on Data Quality.

Legend

  • E = Estimated
  • M = Missing
  • NA = Not Available*
  • [empty] = Indicates an unobserved value
Date modified: